Вернуться в каталог

STARLINK-36379

АктивенСвязьSSO
NORAD 68769·PAYLOAD·🇺🇸 United States

Запущен Apr 19, 2026 с Vandenberg Space Force Base

Loading…

Ближайшие Пролёты (ближайшие 24 часа)

TLE

СвежийSource: CelesTrak SupGP

Эпоха: Sep 14, 2026, 15:27 UTC

1 68769C 26086D   26257.64423611 -.00013438  00000+0 -41711-3 0  2571
2 68769  97.2849 293.0961 0001146 108.0173 259.2880 15.33449440    11

Отслеживайте STARLINK-36379 в реальном времени с AllMySat

Download on the App Store